Weather History for KMWM - March, 2012

Change the Weather History Date:

Monday, March 26, 2012

  Actual Average Record
Temperature  
Mean Temperature 46 °F -  
Max Temperature 53 °F 46 °F 80 °F (2007)
Min Temperature 39 °F 25 °F 0 °F (1964)
Degree Days  
Heating Degree Days 19    
Moisture  
Dew Point 38 °F    
Average Humidity 73    
Maximum Humidity 87    
Minimum Humidity 58    
Precipitation  
Precipitation 0.00 in - - ()
Sea Level Pressure  
Sea Level Pressure 30.05 in    
Wind  
Wind Speed 19 mph (ESE)    
Max Wind Speed 37 mph    
Max Gust Speed 47 mph    
Visibility 10 miles    
Events Thunderstorm    
Averages and records for this station are not official NWS values.
T = Trace of Precipitation, MM = Missing Value Source: NWS Daily Summary

Daily Weather History Graph

Daily Weather History Graph

Search for Another Location

Airport or City:

Trip Planner

Search our weather history database for the weather conditions in past years. The results will help you decide how hot, cold, wet, or windy it might be!

Date:

Astronomy

Mar. 26, 2012 Rise Set
Actual Time 7:11 AM CDT 7:40 PM CDT
Civil Twilight 6:42 AM CDT 8:09 PM CDT
Nautical Twilight 6:08 AM CDT 8:43 PM CDT
Astronomical Twilight 5:33 AM CDT 9:19 PM CDT
Moon 8:52 AM CDT (3/26) No Moon Set
Length of Visible Light 13h 26m
Length of Day
12h 29m
Waxing Crescent, 15% of the Moon is Illuminated
Mar 26
Waxing Crescent
Mar 30
First Quarter
Apr 6
Full
Apr 13
Last Quarter
Apr 21
New

Hourly Weather History & Observations

Time (CDT) Temp. Windchill Dew Point Humidity Pressure Visibility Wind Dir Wind Speed Gust Speed Precip Events Conditions
12:12 AM 48.2 °F - 33.8 °F 58% 30.13 in 10.0 mi East 15.0 mph 20.7 mph N/A   Mostly Cloudy
12:33 AM 46.4 °F 40.1 °F 35.6 °F 66% 30.13 in 10.0 mi ENE 15.0 mph 19.6 mph N/A   Scattered Clouds
12:53 AM 46.4 °F 40.4 °F 35.6 °F 66% 30.13 in 10.0 mi ENE 13.8 mph 19.6 mph N/A   Scattered Clouds
1:12 AM 44.6 °F 38.1 °F 37.4 °F 76% 30.14 in 10.0 mi ENE 13.8 mph - N/A   Mostly Cloudy
1:33 AM 44.6 °F 36.6 °F 37.4 °F 76% 30.14 in 10.0 mi ENE 19.6 mph 23.0 mph N/A   Overcast
1:53 AM 44.6 °F 37.4 °F 35.6 °F 71% 30.13 in 10.0 mi East 16.1 mph - N/A   Overcast
2:12 AM 44.6 °F 37.2 °F 35.6 °F 71% 30.13 in 10.0 mi East 17.3 mph - N/A   Overcast
2:33 AM 44.6 °F 37.4 °F 35.6 °F 71% 30.13 in 10.0 mi East 16.1 mph 21.9 mph N/A   Overcast
2:53 AM 44.6 °F 38.1 °F 37.4 °F 76% 30.14 in 10.0 mi East 13.8 mph - N/A Thunderstorm Overcast
3:12 AM 44.6 °F 38.4 °F 35.6 °F 71% 30.13 in 10.0 mi East 12.7 mph - N/A   Mostly Cloudy
3:33 AM 44.6 °F 38.8 °F 37.4 °F 76% 30.13 in 10.0 mi East 11.5 mph - N/A   Mostly Cloudy
3:53 AM 42.8 °F 35.4 °F 37.4 °F 81% 30.14 in 10.0 mi East 15.0 mph - N/A   Mostly Cloudy
4:12 AM 42.8 °F 35.8 °F 37.4 °F 81% 30.13 in 10.0 mi East 13.8 mph - N/A   Scattered Clouds
4:33 AM 42.8 °F 35.8 °F 37.4 °F 81% 30.13 in 10.0 mi East 13.8 mph 19.6 mph N/A   Scattered Clouds
4:52 AM 42.8 °F 35.4 °F 37.4 °F 81% 30.13 in 10.0 mi East 15.0 mph 18.4 mph N/A   Clear
5:12 AM 42.8 °F 36.6 °F 37.4 °F 81% 30.13 in 10.0 mi East 11.5 mph 16.1 mph N/A   Clear
5:33 AM 41.0 °F 33.5 °F 37.4 °F 87% 30.13 in 10.0 mi East 13.8 mph 17.3 mph N/A   Scattered Clouds
5:52 AM 41.0 °F 33.5 °F 37.4 °F 87% 30.13 in 10.0 mi East 13.8 mph - N/A   Scattered Clouds
6:13 AM 41.0 °F 33.5 °F 37.4 °F 87% 30.13 in 10.0 mi East 13.8 mph 21.9 mph N/A   Clear
6:32 AM 39.2 °F 30.2 °F 35.6 °F 87% 30.12 in 10.0 mi East 17.3 mph - N/A   Clear
6:53 AM 39.2 °F 30.5 °F 35.6 °F 87% 30.13 in 10.0 mi East 16.1 mph 20.7 mph N/A   Clear
7:13 AM 39.2 °F 31.2 °F 35.6 °F 87% 30.12 in 10.0 mi East 13.8 mph 19.6 mph N/A   Clear
7:32 AM 39.2 °F 30.5 °F 35.6 °F 87% 30.12 in 10.0 mi East 16.1 mph 20.7 mph N/A   Clear
7:53 AM 39.2 °F 29.8 °F 35.6 °F 87% 30.12 in 10.0 mi East 18.4 mph 24.2 mph N/A   Clear
8:12 AM 39.2 °F 30.8 °F 35.6 °F 87% 30.12 in 10.0 mi East 15.0 mph 25.3 mph N/A   Clear
8:32 AM 42.8 °F 35.1 °F 37.4 °F 81% 30.11 in 10.0 mi East 16.1 mph 25.3 mph N/A   Clear
8:53 AM 42.8 °F 34.8 °F 37.4 °F 81% 30.11 in 10.0 mi East 17.3 mph 25.3 mph N/A   Clear
9:13 AM 44.6 °F 36.9 °F 39.2 °F 81% 30.11 in 10.0 mi East 18.4 mph 26.5 mph N/A   Scattered Clouds
9:32 AM 44.6 °F 36.9 °F 39.2 °F 81% 30.11 in 10.0 mi East 18.4 mph 29.9 mph N/A   Mostly Cloudy
9:53 AM 44.6 °F 36.1 °F 39.2 °F 81% 30.11 in 10.0 mi ESE 21.9 mph 29.9 mph N/A   Overcast
10:12 AM 44.6 °F 36.1 °F 41.0 °F 87% 30.10 in 10.0 mi ESE 21.9 mph 31.1 mph N/A   Overcast
10:32 AM 44.6 °F 35.7 °F 41.0 °F 87% 30.10 in 10.0 mi ESE 24.2 mph 29.9 mph N/A   Overcast
11:13 AM 46.4 °F 37.7 °F 39.2 °F 76% 30.09 in 10.0 mi ESE 26.5 mph 33.4 mph N/A   Overcast
11:32 AM 46.4 °F 37.4 °F 39.2 °F 76% 30.09 in 10.0 mi ESE 28.8 mph 34.5 mph N/A   Overcast
11:53 AM 46.4 °F 38.1 °F 39.2 °F 76% 30.08 in 10.0 mi ESE 24.2 mph 32.2 mph N/A   Overcast
12:12 PM 46.4 °F 37.4 °F 39.2 °F 76% 30.07 in 10.0 mi ESE 28.8 mph 38.0 mph N/A   Overcast
12:32 PM 48.2 °F - 39.2 °F 71% 30.07 in 10.0 mi ESE 29.9 mph 35.7 mph N/A   Overcast
12:53 PM 50.0 °F - 39.2 °F 66% 30.03 in 10.0 mi ESE 32.2 mph 39.1 mph N/A   Overcast
1:12 PM 51.8 °F - 39.2 °F 62% 30.03 in 10.0 mi ESE 25.3 mph 35.7 mph N/A   Unknown
1:32 PM 53.6 °F - 39.2 °F 58% 30.01 in 10.0 mi ESE 29.9 mph 39.1 mph N/A   Overcast
1:53 PM 53.6 °F - 39.2 °F 58% 30.00 in 10.0 mi ESE 28.8 mph 38.0 mph N/A   Overcast
2:12 PM 53.6 °F - 39.2 °F 58% 29.99 in 10.0 mi ESE 26.5 mph 35.7 mph N/A   Overcast
2:32 PM 51.8 °F - 39.2 °F 62% 29.98 in 10.0 mi ESE 31.1 mph 38.0 mph N/A   Overcast
2:52 PM 50.0 °F - 39.2 °F 66% 29.93 in 10.0 mi ESE 28.8 mph 40.3 mph N/A   Light Drizzle
3:12 PM 51.8 °F - 39.2 °F 62% 29.90 in 10.0 mi ESE 33.4 mph 47.2 mph N/A   Light Drizzle
3:32 PM 51.8 °F - 39.2 °F 62% 29.92 in 10.0 mi ESE 33.4 mph 42.6 mph N/A   Overcast
3:52 PM 51.8 °F - 39.2 °F 62% 29.92 in 10.0 mi ESE 31.1 mph 39.1 mph N/A   Mostly Cloudy
4:13 PM 51.8 °F - 39.2 °F 62% 29.94 in 10.0 mi ESE 24.2 mph 36.8 mph N/A   Mostly Cloudy
4:32 PM 50.0 °F - 39.2 °F 66% 29.92 in 10.0 mi ESE 31.1 mph 39.1 mph N/A   Mostly Cloudy
4:52 PM 50.0 °F - 37.4 °F 62% 29.90 in 10.0 mi ESE 27.6 mph 35.7 mph N/A   Mostly Cloudy
5:12 PM 50.0 °F - 37.4 °F 62% 29.88 in 10.0 mi ESE 32.2 mph 40.3 mph N/A   Overcast
5:32 PM 50.0 °F - 37.4 °F 62% 29.87 in 10.0 mi ESE 36.8 mph 43.7 mph N/A   Overcast
5:52 PM 50.0 °F - 37.4 °F 62% 29.85 in 10.0 mi ESE 32.2 mph 42.6 mph N/A   Overcast
6:13 PM 48.2 °F - 37.4 °F 66% 29.85 in 10.0 mi ESE 34.5 mph 44.9 mph N/A   Scattered Clouds
6:32 PM 48.2 °F - 37.4 °F 66% 29.85 in 10.0 mi ESE 25.3 mph 41.4 mph N/A   Scattered Clouds
6:52 PM 48.2 °F - 37.4 °F 66% 29.85 in 10.0 mi ESE 27.6 mph 38.0 mph N/A   Scattered Clouds
7:12 PM 46.4 °F 37.5 °F 37.4 °F 71% 29.85 in 10.0 mi ESE 27.6 mph 34.5 mph N/A   Clear
7:32 PM 46.4 °F 38.1 °F 37.4 °F 71% 29.84 in 10.0 mi ESE 24.2 mph 34.5 mph N/A   Clear
7:52 PM 46.4 °F 37.7 °F 37.4 °F 71% 29.83 in 10.0 mi ESE 26.5 mph 35.7 mph N/A   Clear
8:12 PM 44.6 °F 35.3 °F 37.4 °F 76% 29.82 in 10.0 mi SE 26.5 mph 36.8 mph N/A   Scattered Clouds
8:32 PM 44.6 °F 35.3 °F 37.4 °F 76% 29.83 in 10.0 mi SE 26.5 mph 32.2 mph N/A   Scattered Clouds
8:53 PM 44.6 °F 35.7 °F 37.4 °F 76% 29.82 in 10.0 mi SE 24.2 mph 33.4 mph N/A   Scattered Clouds
9:12 PM 44.6 °F 34.7 °F 35.6 °F 71% 29.81 in 10.0 mi SE 29.9 mph 40.3 mph N/A   Clear
9:32 PM 44.6 °F 35.7 °F 35.6 °F 71% 29.82 in 10.0 mi SE 24.2 mph 34.5 mph N/A   Clear
9:52 PM 44.6 °F 36.4 °F 35.6 °F 71% 29.82 in 10.0 mi SE 20.7 mph 29.9 mph N/A   Clear
10:12 PM 44.6 °F 34.9 °F 35.6 °F 71% 29.80 in 10.0 mi SE 28.8 mph 36.8 mph N/A   Clear
10:33 PM 46.4 °F 37.2 °F 35.6 °F 66% 29.78 in 10.0 mi SE 29.9 mph 41.4 mph N/A   Clear
10:52 PM 44.6 °F 35.3 °F 35.6 °F 71% 29.77 in 10.0 mi SE 26.5 mph 46.0 mph N/A   Clear
11:13 PM 44.6 °F 35.1 °F 35.6 °F 71% 29.77 in 10.0 mi SE 27.6 mph 46.0 mph N/A   Clear
11:32 PM 44.6 °F 35.3 °F 35.6 °F 71% 29.77 in 10.0 mi SSE 26.5 mph 38.0 mph N/A   Clear
11:52 PM 44.6 °F 35.3 °F 35.6 °F 71% 29.75 in 10.0 mi SE 26.5 mph 36.8 mph N/A   Clear